NI4CE-10 Weather Reports


time (UTC)temp
F
wind
direction
speed
knots
gust
knots
rain 1hr
in
rain 24hr
in
rain mn
in
humidity
%
barometer
mb
20200531081710 68 180 0.0 0.0 0.00 0.00 0.00 100 1016.0
20200531081315 68 180 0.0 0.0 0.00 0.00 0.00 100 1016.0
20200531081209 68 180 0.0 0.0 0.00 0.00 0.00 100 1016.0
20200531080744 69 180 0.0 0.0 0.00 0.00 0.00 100 1015.9
20200531080710 69 180 0.0 0.0 0.00 0.00 0.00 100 1015.9
20200531080210 69 180 0.0 0.0 0.00 0.00 0.00 100 1015.9
20200531075709 68 180 0.0 0.0 0.00 0.00 0.00 100 1016.0
20200531075209 68 180 0.0 0.0 0.00 0.00 0.00 100 1015.9
20200531074709 69 180 0.0 0.0 0.00 0.00 0.00 100 1015.9
20200531074209 69 180 0.0 0.0 0.00 0.00 0.00 100 1016.1
20200531073709 69 180 0.0 0.0 0.00 0.00 0.00 100 1016.2
20200531073209 69 180 0.0 0.0 0.00 0.00 0.00 100 1016.2
20200531072709 69 180 0.0 0.0 0.00 0.00 0.00 100 1016.2
20200531072210 69 180 0.0 0.0 0.00 0.00 0.00 100 1016.3
20200531072034 69 180 0.0 0.0 0.00 0.00 0.00 100 1016.3
20200531071710 69 180 0.0 0.0 0.00 0.00 0.00 100 1016.3
20200531071210 69 180 0.0 0.0 0.00 0.00 0.00 100 1016.3
20200531070746 69 180 0.0 0.0 0.00 0.00 0.00 100 1016.4
20200531070710 69 180 0.0 0.0 0.00 0.00 0.00 100 1016.4
20200531070210 69 180 0.0 0.0 0.00 0.00 0.00 100 1016.4
20200531065937 69 180 0.0 0.0 0.00 0.00 0.00 100 1016.6
20200531065710 69 180 0.0 0.0 0.00 0.00 0.00 100 1016.4
20200531065210 69 180 0.0 0.0 0.00 0.00 0.00 100 1016.4
20200531064710 69 180 0.0 0.0 0.00 0.00 0.00 100 1016.5
20200531064210 69 180 0.0 0.0 0.00 0.00 0.00 100 1016.4
20200531063710 69 180 0.0 0.0 0.00 0.00 0.00 100 1016.6
20200531063705 69 180 0.0 0.0 0.00 0.00 0.00 100 1016.4
20200531063255 69 180 0.0 0.0 0.00 0.00 0.00 100 1016.4
20200531063210 69 180 0.0 0.0 0.00 0.00 0.00 100 1016.4
20200531062710 69 180 0.0 0.0 0.00 0.00 0.00 100 1016.6
20200531062210 69 180 0.0 0.0 0.00 0.00 0.00 100 1016.6
20200531061710 69 180 0.0 0.0 0.00 0.00 0.00 100 1016.7
20200531061210 70 180 0.0 0.0 0.00 0.00 0.00 100 1016.7
20200531060710 70 180 0.0 0.0 0.00 0.00 0.00 100 1016.7
20200531060210 70 180 0.0 0.0 0.00 0.00 0.00 100 1016.7
20200531055753 70 180 0.0 0.0 0.00 0.00 0.00 100 1016.8
20200531055710 70 180 0.0 0.0 0.00 0.00 0.00 100 1016.8
20200531055210 70 180 0.0 0.0 0.00 0.00 0.00 100 1016.9
20200531054710 70 180 0.0 0.0 0.00 0.00 0.00 100 1016.9
20200531054210 70 180 0.0 0.0 0.00 0.00 0.00 100 1016.9
20200531053710 70 180 0.0 0.0 0.00 0.00 0.00 100 1017.0
20200531053210 70 180 0.0 0.0 0.00 0.00 0.00 100 1017.1
20200531052710 71 180 0.0 0.0 0.00 0.00 0.00 100 1017.0
20200531052210 70 180 0.0 0.0 0.00 0.00 0.00 100 1017.1
20200531051742 71 180 0.0 0.0 0.00 0.00 0.00 100 1017.3
20200531051710 71 180 0.0 0.0 0.00 0.00 0.00 100 1017.3
20200531051210 71 180 0.0 0.0 0.00 0.00 0.00 100 1017.4
20200531050710 71 180 0.0 0.0 0.00 0.00 0.00 100 1017.5
20200531050253 71 180 0.0 0.0 0.00 0.00 0.00 100 1017.6
20200531050210 71 180 0.0 0.0 0.00 0.00 0.00 100 1017.6
20200531045710 71 180 0.0 0.0 0.00 0.00 0.00 100 1017.6
20200531045210 72 180 0.0 0.0 0.00 0.00 0.00 100 1017.8
20200531044710 71 180 0.0 0.0 0.00 0.00 0.00 100 1017.9
20200531044210 71 180 0.0 0.0 0.00 0.00 0.00 100 1017.9
20200531043710 72 180 0.0 0.0 0.00 0.00 0.00 100 1018.1
20200531043210 72 180 0.0 0.0 0.00 0.00 0.00 100 1017.6
20200531042710 72 180 0.0 0.0 0.00 0.00 0.00 100 1018.3
20200531042210 72 180 0.0 0.0 0.00 0.00 0.00 100 1018.3
20200531041710 72 180 0.0 0.0 0.00 0.00 0.00 100 1018.4
20200531041244 72 180 0.0 1.7 0.00 0.00 0.00 100 1018.4
20200531041210 72 180 0.0 1.7 0.00 0.00 0.00 100 1018.4
20200531040710 73 180 0.0 0.9 0.00 0.00 0.00 100 1018.3
20200531040210 73 180 0.0 1.7 0.00 0.00 0.00 100 1018.5
20200531035712 73 180 0.9 2.6 0.00 0.00 0.00 100 1018.4
20200531035211 73 180 0.0 2.6 0.00 0.00 0.00 100 1018.3
20200531034710 73 180 1.7 2.6 0.00 0.00 0.00 100 1018.5
20200531034210 73 180 1.7 1.7 0.00 0.00 0.00 100 1018.5
20200531033711 73 180 0.0 5.2 0.00 0.00 0.00 100 1018.2
20200531033210 73 180 1.7 7.8 0.00 0.00 0.00 100 1018.4
20200531032710 72 180 2.6 5.2 0.00 0.00 0.00 100 1018.5
20200531032211 72 180 0.0 1.7 0.00 0.00 0.00 100 1018.0
20200531031711 72 180 0.0 0.0 0.00 0.00 0.00 100 1018.0
20200531031211 72 180 0.0 0.0 0.00 0.00 0.00 100 1018.1
20200531030711 72 180 0.0 0.0 0.00 0.00 0.00 100 1017.2
20200531030254 72 180 0.0 0.0 0.00 0.00 0.00 100 1018.2
20200531030211 72 180 0.0 0.0 0.00 0.00 0.00 100 1018.2
20200531025711 72 180 0.0 0.9 0.00 0.00 0.00 100 1018.2
20200531025211 72 180 0.0 0.0 0.00 0.00 0.00 100 1018.2
20200531024711 72 180 0.0 0.0 0.00 0.00 0.00 100 1018.3
20200531024211 72 180 0.0 0.0 0.00 0.00 0.00 100 1018.3
20200531023711 72 180 0.0 0.0 0.00 0.00 0.00 100 1018.4
20200531023211 72 180 0.0 0.0 0.00 0.00 0.00 100 1018.4
20200531022711 73 180 0.0 0.0 0.00 0.00 0.00 100 1018.3
20200531022211 73 180 0.0 0.0 0.00 0.00 0.00 100 1018.2
20200531021711 73 180 0.0 0.0 0.00 0.00 0.00 100 1018.1
20200531021451 73 180 0.0 2.6 0.00 0.00 0.00 100 1018.0
20200531021420 73 180 0.0 2.6 0.00 0.00 0.00 100 1018.0
20200531021211 73 180 0.0 2.6 0.00 0.00 0.00 100 1018.0
20200531020711 73 180 1.7 1.7 0.00 0.00 0.00 100 1018.0
20200531020212 73 180 0.0 0.0 0.00 0.00 0.00 100 1017.7
20200531015744 73 180 0.0 0.0 0.00 0.00 0.00 100 1018.0
20200531015711 73 180 0.0 0.0 0.00 0.00 0.00 100 1018.0
20200531015211 73 180 0.0 1.7 0.00 0.00 0.00 100 1017.9
20200531014711 73 180 0.0 0.0 0.00 0.00 0.00 100 1018.0
20200531014441 74 180 0.0 0.0 0.00 0.00 0.00 100 1016.1
20200531014211 73 180 0.0 1.7 0.00 0.00 0.00 100 1017.9
20200531013711 73 180 1.7 2.6 0.00 0.00 0.00 100 1016.4
20200531013256 74 180 0.0 0.0 0.00 0.00 0.00 100 1016.2
20200531013211 74 180 0.0 0.0 0.00 0.00 0.00 100 1016.2
20200531012711 74 180 0.0 0.0 0.00 0.00 0.00 100 1016.1
20200531012303 74 180 2.6 4.3 0.00 0.00 0.00 100 1016.1
20200531012211 74 180 0.0 0.0 0.00 0.00 0.00 100 1016.1
20200531011711 74 180 0.0 0.0 0.00 0.00 0.00 100 1016.1
20200531011211 74 180 0.0 0.0 0.00 0.00 0.00 100 1016.0
20200531010711 74 180 0.0 0.0 0.00 0.00 0.00 100 1016.0
20200531010211 74 180 0.0 3.5 0.00 0.00 0.00 100 1016.0
20200531005711 74 180 2.6 4.3 0.00 0.00 0.00 100 1016.1
20200531005442 75 180 2.6 3.5 0.00 0.00 0.00 100 1016.5
20200531005211 75 180 2.6 3.5 0.00 0.00 0.00 100 1016.5
20200531004753 75 180 0.0 3.5 0.00 0.00 0.00 100 1016.0
20200531004711 75 180 0.0 3.5 0.00 0.00 0.00 100 1016.0
20200531004337 75 180 0.9 3.5 0.00 0.00 0.00 100 1015.7
20200531004211 75 180 0.9 3.5 0.00 0.00 0.00 100 1015.7
20200531003905 75 180 1.7 3.5 0.00 0.00 0.00 100 1016.2
20200531003711 75 180 1.7 3.5 0.00 0.00 0.00 100 1015.8
20200531003211 75 180 1.7 3.5 0.00 0.00 0.00 100 1016.2
20200531003116 80 180 0.9 2.6 0.00 0.00 0.05 100 1016.2
20200531002711 75 180 2.6 5.2 0.00 0.00 0.00 100 1017.2
20200531002333 75 180 0.9 6.1 0.00 0.00 0.00 100 1017.1
20200531002211 75 180 0.9 6.1 0.00 0.00 0.00 100 1017.1
20200531001711 76 180 1.7 7.8 0.00 0.00 0.00 100 1017.2
20200531001211 76 180 3.5 10.4 0.00 0.00 0.00 100 1017.1
20200531000713 77 180 7.0 7.8 0.00 0.00 0.00 100 1017.1
20200531000211 78 180 7.0 7.8 0.00 0.00 0.00 100 1016.8
20200530235711 79 180 5.2 7.8 0.00 0.00 0.00 100 1016.7
20200530235211 79 180 0.0 0.0 0.00 0.00 0.00 100 1016.4
20200530234711 80 180 0.0 1.7 0.00 0.00 0.05 100 1016.2
20200530234211 80 180 1.7 1.7 0.00 0.00 0.05 100 1015.7
20200530233758 80 180 0.9 2.6 0.00 0.00 0.05 100 1016.2
20200530233711 80 180 0.9 2.6 0.00 0.00 0.05 100 1016.2
20200530233254 81 180 0.0 5.2 0.00 0.00 0.05 100 1015.9
20200530233212 81 180 0.0 5.2 0.00 0.00 0.05 100 1015.9
20200530232712 81 180 0.9 7.8 0.00 0.00 0.05 100 1016.1
20200530232212 85 180 2.6 5.2 0.00 0.00 0.05 100 1016.1
20200530231712 85 180 2.6 4.3 0.00 0.00 0.05 100 1015.7
20200530231359 86 180 4.3 7.0 0.00 0.00 0.05 100 1015.5
20200530231212 85 180 0.0 5.2 0.00 0.00 0.05 100 1015.6
20200530230712 86 180 4.3 7.0 0.00 0.00 0.05 100 1015.5
20200530230212 86 180 4.3 7.8 0.00 0.00 0.05 100 1015.5
20200530225712 86 180 2.6 6.1 0.00 0.00 0.05 100 1015.4
20200530225309 86 180 0.0 7.8 0.00 0.00 0.05 100 1015.3
20200530225212 86 180 0.0 7.8 0.00 0.00 0.05 100 1015.3
20200530224924 86 180 0.0 7.8 0.00 0.00 0.05 100 1015.0
20200530224757 86 180 0.0 7.8 0.00 0.00 0.05 100 1015.0
20200530224712 86 180 0.0 7.8 0.00 0.00 0.05 100 1015.0
20200530224212 86 180 3.5 7.8 0.00 0.00 0.05 100 1014.9
20200530223757 86 180 0.9 7.8 0.00 0.00 0.05 100 1014.6
20200530223712 86 180 0.9 7.8 0.00 0.00 0.05 100 1014.6
20200530223212 86 180 5.2 9.6 0.00 0.00 0.05 100 1014.5
20200530222712 86 180 4.3 8.7 0.00 0.00 0.05 100 1014.5
20200530222254 87 180 6.1 7.8 0.00 0.00 0.05 100 1014.5
20200530222212 87 180 6.1 7.8 0.00 0.00 0.05 100 1014.5
20200530221712 87 180 3.5 7.8 0.00 0.00 0.05 100 1014.6
20200530221212 88 180 3.5 8.7 0.00 0.00 0.05 100 1014.6
20200530220836 89 180 3.5 7.0 0.00 0.00 0.05 100 1014.9
20200530220712 88 180 3.5 7.8 0.00 0.00 0.05 100 1014.8
20200530220212 89 180 3.5 7.0 0.00 0.00 0.05 100 1014.9
20200530215805 89 180 0.0 6.1 0.00 0.00 0.05 100 1014.9
20200530215712 89 180 0.0 6.1 0.00 0.00 0.05 100 1014.9
20200530215251 89 180 0.0 7.8 0.00 0.00 0.05 100 1014.8
20200530215212 89 180 0.0 7.8 0.00 0.00 0.05 100 1014.8
20200530214712 89 180 4.3 9.6 0.00 0.00 0.05 100 1014.7
20200530214258 90 180 1.7 4.3 0.00 0.00 0.05 100 1014.9
20200530214212 90 180 1.7 4.3 0.00 0.00 0.05 100 1014.9
20200530213712 89 180 1.7 4.3 0.00 0.00 0.05 100 1014.7
20200530213212 90 180 0.9 4.3 0.00 0.00 0.05 100 1014.8
20200530212748 89 180 0.0 4.3 0.00 0.00 0.05 100 1014.7
20200530212713 89 180 0.0 4.3 0.00 0.00 0.05 100 1014.7
20200530212212 89 180 0.9 5.2 0.00 0.00 0.05 100 1014.9
20200530211712 88 180 2.6 6.1 0.00 0.00 0.05 100 1015.1
20200530211212 88 180 2.6 3.5 0.00 0.00 0.05 100 1015.1
20200530210712 87 180 3.5 4.3 0.00 0.00 0.05 100 1015.3
20200530210301 88 180 0.0 4.3 0.00 0.00 0.05 100 1015.4
20200530210212 88 180 0.0 4.3 0.00 0.00 0.05 100 1015.4
20200530205712 87 180 1.7 6.1 0.00 0.00 0.05 100 1015.4
20200530205213 85 180 2.6 4.3 0.00 0.00 0.05 100 1015.4
20200530204213 82 180 5.2 7.0 0.05 0.05 0.05 100 1015.8
20200530203759 80 180 4.3 7.8 0.05 0.05 0.05 100 1015.8
20200530203713 80 180 4.3 7.8 0.05 0.05 0.05 100 1015.8
20200530203213 79 180 6.1 7.8 0.05 0.05 0.05 100 1015.8
20200530202713 79 180 2.6 10.4 0.05 0.05 0.05 100 1016.0
20200530202213 78 180 6.1 11.3 0.05 0.05 0.05 100 1016.2
20200530201757 78 180 5.2 9.6 0.05 0.05 0.05 100 1016.2
20200530201713 78 180 5.2 9.6 0.05 0.05 0.05 100 1016.2
20200530201256 77 180 7.0 9.6 0.05 0.05 0.05 100 1016.1
20200530201213 77 180 7.0 9.6 0.05 0.05 0.05 100 1016.1
20200530200814 76 180 4.3 10.4 0.05 0.05 0.05 100 1016.1
20200530200713 76 180 4.3 10.4 0.05 0.05 0.05 100 1016.1
20200530200213 77 180 9.6 13.9 0.05 0.05 0.05 100 1016.2
20200530195758 78 180 2.6 9.6 0.04 0.04 0.04 100 1016.4
20200530195713 78 180 2.6 9.6 0.04 0.04 0.04 100 1016.4
20200530195213 78 180 7.8 12.2 0.04 0.04 0.04 100 1016.5
20200530194713 81 180 3.5 6.1 0.01 0.01 0.01 100 1016.5
20200530194213 82 180 1.7 7.8 0.00 0.00 0.00 100 1016.4
20200530193714 83 180 0.9 5.2 0.00 0.00 0.00 100 1014.6
20200530193213 83 180 2.6 5.2 0.00 0.00 0.00 100 1014.5
20200530192759 84 180 1.7 7.8 0.00 0.00 0.00 100 1014.6
20200530192714 84 180 1.7 7.8 0.00 0.00 0.00 100 1014.6
20200530192251 84 180 0.9 10.4 0.00 0.00 0.00 100 1014.8
20200530192214 84 180 0.9 10.4 0.00 0.00 0.00 100 1014.8
20200530191714 85 180 2.6 7.8 0.00 0.00 0.00 100 1014.8
20200530191312 87 180 4.3 8.7 0.00 0.00 0.00 100 1015.8
20200530191214 87 180 4.3 8.7 0.00 0.00 0.00 100 1015.8
20200530190800 91 180 4.3 5.2 0.00 0.00 0.00 100 1016.1
20200530190714 91 180 4.3 5.2 0.00 0.00 0.00 100 1016.1
20200530190214 92 180 0.0 1.7 0.00 0.00 0.00 100 1016.0
20200530185801 93 180 0.0 0.9 0.00 0.00 0.00 100 1015.5
20200530185714 93 180 0.0 0.9 0.00 0.00 0.00 100 1015.5
20200530185254 93 180 0.0 4.3 0.00 0.00 0.00 100 1015.1
20200530185214 93 180 0.0 4.3 0.00 0.00 0.00 100 1015.1
20200530184758 96 180 0.9 5.2 0.00 0.00 0.00 100 1015.8
20200530184714 95 180 0.0 3.5 0.00 0.00 0.00 100 1016.0
20200530184259 96 180 0.9 5.2 0.00 0.00 0.00 100 1015.8
20200530184214 96 180 0.9 5.2 0.00 0.00 0.00 100 1015.8
20200530183714 95 180 4.3 4.3 0.00 0.00 0.00 100 1014.6
20200530183325 94 180 0.0 4.3 0.00 0.00 0.00 100 1014.9
20200530183214 94 180 0.0 4.3 0.00 0.00 0.00 100 1014.9
20200530182714 93 180 3.5 5.2 0.00 0.00 0.00 100 1015.9
20200530182214 92 180 0.9 2.6 0.00 0.00 0.00 100 1014.6
20200530181809 92 180 0.0 5.2 0.00 0.00 0.00 100 1016.3
20200530181714 92 180 0.0 5.2 0.00 0.00 0.00 100 1016.3
20200530181255 90 180 0.9 1.7 0.00 0.00 0.00 100 1016.2
20200530181214 90 180 0.9 1.7 0.00 0.00 0.00 100 1016.2
20200530180714 90 180 0.0 0.0 0.00 0.00 0.00 100 1016.2
20200530180550 90 180 0.0 0.9 0.00 0.00 0.00 100 1016.4
20200530180214 90 180 0.0 0.9 0.00 0.00 0.00 100 1016.4
20200530175714 90 180 0.0 2.6 0.00 0.00 0.00 100 1016.4
20200530175214 91 180 0.0 1.7 0.00 0.00 0.00 100 1016.5
20200530174714 92 180 0.9 2.6 0.00 0.00 0.00 100 1016.6
20200530174251 93 180 0.9 6.1 0.00 0.00 0.00 100 1016.6
20200530174214 93 180 0.9 6.1 0.00 0.00 0.00 100 1016.6
20200530173757 96 180 0.0 1.7 0.00 0.00 0.00 100 1016.7
20200530173714 96 180 0.0 1.7 0.00 0.00 0.00 100 1016.7
20200530173214 95 180 0.0 2.6 0.00 0.00 0.00 100 1016.7
20200530172714 95 180 0.0 1.7 0.00 0.00 0.00 100 1016.7
20200530172406 94 180 0.9 3.5 0.00 0.00 0.00 100 1016.8
20200530172325 95 180 0.0 2.6 0.00 0.00 0.00 100 1016.5
20200530172214 95 180 0.0 2.6 0.00 0.00 0.00 100 1016.5
20200530171714 94 180 0.9 3.5 0.00 0.00 0.00 100 1016.8
20200530171214 93 180 0.0 0.9 0.00 0.00 0.00 100 1017.0
20200530170714 92 180 0.0 0.0 0.00 0.00 0.00 100 1016.5
20200530170214 93 180 0.0 0.0 0.00 0.00 0.00 100 1017.0
20200530165815 90 180 0.0 0.9 0.00 0.00 0.00 100 1017.0
20200530165714 91 180 0.0 2.6 0.00 0.00 0.00 100 1017.0
20200530165214 90 180 0.0 0.0 0.00 0.00 0.00 100 1017.1
20200530164714 89 180 0.0 0.0 0.00 0.00 0.00 100 1017.1
20200530164214 89 180 0.0 0.0 0.00 0.00 0.00 100 1017.2
20200530163714 89 180 0.0 0.0 0.00 0.00 0.00 100 1017.2
20200530163214 90 180 0.0 0.9 0.00 0.00 0.00 100 1017.0
20200530162714 90 180 0.0 0.0 0.00 0.00 0.00 100 1017.2
20200530162343 92 180 1.7 5.2 0.00 0.00 0.00 100 1017.5
20200530162214 90 180 0.0 0.0 0.00 0.00 0.00 100 1017.3
20200530161758 91 180 0.0 0.0 0.00 0.00 0.00 100 1017.3
20200530161714 91 180 0.0 0.0 0.00 0.00 0.00 100 1017.3
20200530161257 90 180 0.0 2.6 0.00 0.00 0.00 100 1017.3
20200530161214 90 180 0.0 2.6 0.00 0.00 0.00 100 1017.3
20200530160810 88 180 0.0 2.6 0.00 0.00 0.00 100 1017.3
20200530160714 88 180 0.0 2.6 0.00 0.00 0.00 100 1017.3
20200530160336 89 180 0.0 3.5 0.00 0.00 0.00 100 1017.4
20200530160214 89 180 0.0 3.5 0.00 0.00 0.00 100 1017.4
20200530155759 90 180 1.7 1.7 0.00 0.00 0.00 100 1017.5
20200530155714 90 180 1.7 1.7 0.00 0.00 0.00 100 1017.5
20200530155306 89 180 0.0 1.7 0.00 0.00 0.00 100 1017.5
20200530155215 89 180 0.0 1.7 0.00 0.00 0.00 100 1017.5
20200530154714 91 180 0.0 1.7 0.00 0.00 0.00 100 1017.5
20200530154214 92 180 0.0 2.6 0.00 0.00 0.00 100 1017.6
20200530153715 92 180 1.7 5.2 0.00 0.00 0.00 100 1017.5
20200530153215 90 180 0.0 3.5 0.00 0.00 0.00 100 1017.6
20200530152715 90 180 1.7 5.2 0.00 0.00 0.00 100 1017.6
20200530152503 90 180 0.0 1.7 0.00 0.00 0.00 100 1017.7
20200530152215 90 180 4.3 4.3 0.00 0.00 0.00 100 1017.6
20200530151715 90 180 0.0 1.7 0.00 0.00 0.00 100 1017.7
20200530151215 90 180 0.0 4.3 0.00 0.00 0.00 100 1017.7
20200530150715 91 180 3.5 4.3 0.00 0.00 0.00 100 1017.6
20200530150215 90 180 0.0 3.5 0.00 0.00 0.00 100 1017.6
20200530145715 89 180 2.6 3.5 0.00 0.00 0.00 100 1017.7
20200530145215 88 180 0.0 2.6 0.00 0.00 0.00 100 1017.6
20200530144839 87 180 0.0 4.3 0.00 0.00 0.00 100 1017.3
20200530144715 87 180 0.0 4.3 0.00 0.00 0.00 100 1017.3
20200530144516 87 180 0.0 3.5 0.00 0.00 0.00 100 1017.6
20200530144215 89 180 0.0 1.7 0.00 0.00 0.00 100 1017.6
20200530143715 87 180 0.0 3.5 0.00 0.00 0.00 100 1017.6
20200530143215 88 180 0.0 3.5 0.00 0.00 0.00 100 1017.7
20200530142715 87 180 0.9 6.1 0.00 0.00 0.00 100 1017.8
20200530142356 86 180 0.0 3.5 0.00 0.00 0.00 100 1017.7
20200530142215 86 180 0.0 3.5 0.00 0.00 0.00 100 1017.7
20200530141715 87 180 3.5 5.2 0.00 0.00 0.00 100 1017.8
20200530141253 86 180 0.9 3.5 0.00 0.00 0.00 100 1017.8
20200530141215 86 180 0.9 3.5 0.00 0.00 0.00 100 1017.8
20200530140715 85 180 0.0 3.5 0.00 0.00 0.00 100 1017.8
20200530140254 85 180 0.0 3.5 0.00 0.00 0.00 100 1017.9
20200530140215 85 180 0.0 3.5 0.00 0.00 0.00 100 1017.9
20200530135715 85 180 0.9 3.5 0.00 0.00 0.00 100 1017.4
20200530135254 85 180 0.0 3.5 0.00 0.00 0.00 100 1017.9
20200530135215 85 180 0.0 3.5 0.00 0.00 0.00 100 1017.9
20200530134835 85 180 0.0 3.5 0.00 0.00 0.00 100 1017.9
20200530134715 85 180 0.0 3.5 0.00 0.00 0.00 100 1017.9
20200530134426 83 180 0.0 2.6 0.00 0.00 0.00 100 1017.9
20200530134215 84 180 1.7 3.5 0.00 0.00 0.00 100 1017.8
20200530133715 83 180 0.0 2.6 0.00 0.00 0.00 100 1017.9
20200530133215 83 180 0.0 2.6 0.00 0.00 0.00 100 1017.8
20200530132715 82 180 0.0 2.6 0.00 0.00 0.00 100 1017.8
20200530132215 82 180 0.0 1.7 0.00 0.00 0.00 100 1017.9
20200530131715 82 180 0.0 1.7 0.00 0.00 0.00 100 1017.9
20200530131653 81 180 0.0 1.7 0.00 0.00 0.00 100 1017.9
20200530131215 81 180 0.0 1.7 0.00 0.00 0.00 100 1017.9
20200530130715 81 180 0.9 2.6 0.00 0.00 0.00 100 1017.9
20200530130215 80 180 0.0 2.6 0.00 0.00 0.00 100 1017.8
20200530125715 80 180 0.0 0.0 0.00 0.00 0.00 100 1017.9
20200530125215 79 180 0.0 0.0 0.00 0.00 0.00 100 1017.9
20200530124715 79 180 0.0 0.0 0.00 0.00 0.00 100 1017.9
20200530124215 79 180 0.0 0.0 0.00 0.00 0.00 100 1017.9
20200530123715 78 180 0.0 1.7 0.00 0.00 0.00 100 1017.9
20200530123215 78 180 0.0 0.0 0.00 0.00 0.00 100 1017.9
20200530122715 78 180 0.0 0.0 0.00 0.00 0.00 100 1017.9
20200530122215 77 180 0.0 0.0 0.00 0.00 0.00 100 1017.9
20200530121715 77 180 0.0 0.0 0.00 0.00 0.00 100 1018.0
20200530121215 76 180 0.0 0.0 0.00 0.00 0.00 100 1018.1
20200530120716 76 180 0.0 0.0 0.00 0.00 0.00 100 1018.0
20200530120215 76 180 0.0 0.0 0.00 0.00 0.00 100 1018.1
20200530115715 75 180 0.0 1.7 0.00 0.00 0.00 100 1017.4
20200530115215 74 180 0.9 1.7 0.00 0.00 0.00 100 1018.0
20200530114715 74 180 0.0 0.9 0.00 0.00 0.00 100 1018.0
20200530114216 73 180 0.0 0.0 0.00 0.00 0.00 100 1017.9
20200530113715 73 180 0.0 0.0 0.00 0.00 0.00 100 1018.0
20200530113216 72 180 0.0 0.0 0.00 0.00 0.00 100 1017.8
20200530112716 72 180 0.0 0.0 0.00 0.00 0.00 100 1016.4
20200530112216 71 180 0.0 0.0 0.00 0.00 0.00 100 1017.7
20200530111716 71 180 0.0 0.0 0.00 0.00 0.00 100 1017.7
20200530111216 70 180 0.0 0.0 0.00 0.00 0.00 100 1017.7
20200530110716 69 180 0.0 0.0 0.00 0.00 0.00 100 1017.5
20200530110216 69 180 0.0 0.0 0.00 0.00 0.00 100 1017.5
20200530105716 69 180 0.0 0.0 0.00 0.00 0.00 100 1017.4
20200530105216 69 180 0.0 0.0 0.00 0.00 0.00 100 1017.5
20200530104716 69 180 0.0 0.0 0.00 0.00 0.00 100 1017.5
20200530104216 69 180 0.0 0.0 0.00 0.00 0.00 100 1017.5
20200530103726 69 180 0.0 0.0 0.00 0.00 0.00 100 1017.2
20200530103716 69 180 0.0 0.0 0.00 0.00 0.00 100 1017.2
20200530103220 68 180 0.0 0.0 0.00 0.00 0.00 100 1017.5
20200530103216 68 180 0.0 0.0 0.00 0.00 0.00 100 1017.5
20200530102716 68 180 0.0 0.0 0.00 0.00 0.00 100 1017.4
20200530102216 68 180 0.0 0.0 0.00 0.00 0.00 100 1017.3
20200530101716 69 180 0.0 0.0 0.00 0.00 0.00 100 1017.2
20200530101216 69 180 0.0 0.0 0.00 0.00 0.00 100 1017.2
20200530100938 69 180 0.0 0.0 0.00 0.00 0.00 100 1017.0
20200530100723 69 180 0.0 0.0 0.00 0.00 0.00 100 1017.2
20200530100716 69 180 0.0 0.0 0.00 0.00 0.00 100 1017.2
20200530100220 69 180 0.0 0.0 0.00 0.00 0.00 100 1017.1
20200530100216 69 180 0.0 0.0 0.00 0.00 0.00 100 1017.1
20200530095716 69 180 0.0 0.0 0.00 0.00 0.00 100 1017.0
20200530095216 69 180 0.0 0.0 0.00 0.00 0.00 100 1017.0
20200530094716 69 180 0.0 0.0 0.00 0.00 0.00 100 1017.0
20200530094216 69 180 0.0 0.0 0.00 0.00 0.00 100 1017.0
20200530093716 70 180 0.0 0.0 0.00 0.00 0.00 100 1016.9
20200530093217 69 180 0.0 0.0 0.00 0.00 0.00 100 1016.9
20200530092727 69 180 0.0 0.0 0.00 0.00 0.00 100 1016.8
20200530092716 69 180 0.0 0.0 0.00 0.00 0.00 100 1016.8
20200530092216 69 180 0.0 0.0 0.00 0.00 0.00 100 1016.9
20200530091716 69 180 0.0 0.0 0.00 0.00 0.00 100 1016.8
20200530091216 69 180 0.0 0.0 0.00 0.00 0.00 100 1016.9
20200530090716 70 180 0.0 0.0 0.00 0.00 0.00 100 1016.9
20200530090220 70 180 0.0 0.0 0.00 0.00 0.00 100 1016.9
20200530090216 70 180 0.0 0.0 0.00 0.00 0.00 100 1016.9
20200530085716 70 180 0.0 0.0 0.00 0.00 0.00 100 1016.8
20200530085216 70 180 0.0 0.0 0.00 0.00 0.00 100 1016.9
20200530084716 70 180 0.0 0.0 0.00 0.00 0.00 100 1016.7
20200530084216 71 180 0.0 0.0 0.00 0.00 0.00 100 1016.7
20200530083716 71 180 0.0 0.0 0.00 0.00 0.00 100 1016.8
20200530083216 71 180 0.0 0.0 0.00 0.00 0.00 100 1016.9
20200530082716 71 180 0.0 0.0 0.00 0.00 0.00 100 1016.9
20200530082217 71 180 0.0 0.0 0.00 0.00 0.00 100 1016.9